Regional Weather Roundup
Issued by NWS Sioux Falls, SD

Home | Current Version | Previous Version | Graphics & Text | Print | Product List | Glossary Off
Versions: 1 2 3 4 5 6 7 8 9 10 11 12 13 14 15 16 17 18 19 20 21 22 23 24 25 26 27 28 29 30 31 32 33 34 35 36 37 38 39 40 41 42 43 44 45 46 47 48 49 50

000
ASUS43 KFSD 230110
RWRFSD

WEATHER ROUNDUP FOR SE SOUTH DAKOTA/SW MINNESOTA/NW IOWA
NATIONAL WEATHER SERVICE SIOUX FALLS SD
700 PM CST THU FEB 22 2018

NOTE: "FAIR" INDICATES FEW OR NO CLOUDS BELOW 12,000 FEET WITH NO
SIGNIFICANT WEATHER AND OR OBSTRUCTIONS TO VISIBILITY.


SDZ038>040-050-052>070-230200-
SOUTHEAST SOUTH DAKOTA

CITY           SKY/WX    TMP DP  RH WIND       PRES   REMARKS
BROOKINGS      LGT SNOW  21  19  93 E13       30.17F FOG     WCI   9
CHAMBERLAIN    LGT SNOW  22  22  98 CALM      30.15F
HURON          LGT SNOW  23  22  96 CALM      30.20S FOG
MADISON        LGT SNOW  21  21 100 E12       30.16F VSB 3/4 WCI   9
MITCHELL       LGT SNOW  23  21  92 CALM      30.19F FOG
SIOUX FALLS    SNOW      25  23  92 SE6       30.18S VSB 1/2 WCI  18
WINNER         LGT SNOW  23  19  85 SE5       30.11F FOG     WCI  17
YANKTON        LGT SNOW  24  22  91 CALM      30.20R FOG
$$

MNZ071-072-080-081-089-090-097-098-230200-
SOUTHWEST MINNESOTA

CITY           SKY/WX    TMP DP  RH WIND       PRES   REMARKS
FAIRMONT       MIX PCPN  27  25  92 E13       30.21F WCI  16
JACKSON        MIX PCPN  27  25  93 SE10      30.20R WCI  17
LUVERNE        LGT SNOW  27  23  86 SE5       30.18F WCI  21
MARSHALL       LGT SNOW  23  21  93 E10       30.22F FOG     WCI  12
MONTEVIDEO     LGT SNOW  23  21  93 SE14      30.26R VSB 1   WCI  11
PIPESTONE      LGT SNOW  21  19  93 E8        30.16F VSB 1   WCI  12
REDWOOD FALLS  LGT SNOW  24  23  96 E10       30.25S VSB 1   WCI  14
TRACY          LGT SNOW  24  24  98 NE7       30.21F WCI  16
WORTHINGTON    LGT SNOW  25  23  92 SE10      30.18S FOG     WCI  15
$$

IAZ001>003-012>014-020>022-031-032-NEZ013-014-SDZ071-230200-
NORTHWEST IOWA

CITY           SKY/WX    TMP DP  RH WIND       PRES   REMARKS
CHEROKEE       MIX PCPN  28  28 100 SE6       30.17F WCI  22
DENISON        CLOUDY    30  30 100 SE7       30.18S FOG     WCI  23
ESTHERVILLE    CLOUDY    26  25  96 SE14      30.19S FOG     WCI  14
LE MARS        LGT SNOW  27  27 100 SE7       30.18S VSB 1   WCI  19
ORANGE CITY    LGT SNOW  27  27 100 SE6       30.16F WCI  20
SHELDON        LGT SNOW  27  27 100 SE9       30.16F WCI  17
SIOUX CITY     LGT SNOW  27  26  96 SW5       30.20R FOG     WCI  22
SPENCER        LGT SNOW  28  26  92 SE9       30.18F FOG     WCI  19
STORM LAKE     MIX PCPN  28  28 100 SE15      30.15F WCI  17
$$

ABBREVIATIONS USED IN REMARKS
   TC - TEMPERATURE IN CELSIUS
  WCI - WIND CHILL INDEX
   HX - HEAT INDEX
  VSB - VISIBILITY




USA.gov is the U.S. government's official web portal to all federal, state and local government web resources and services.